Location: Tom
(33.0437°N, 96.9452°W)
Time: 18:51:09
(UTC-06:00)

N. Korean satellite - Pass Details

Date: 23 January 2019
Orbit: 456 x 510 km, 97.2° (Epoch: 21 February)

Event Time Altitude Azimuth Distance (km) Brightness Sun altitude
Rises 05:33:49 0° 38° (NE) 2,594 10.7 -23.9°
Reaches altitude 10° 05:37:22 10° 75° (ENE) 1,691 10.2 -23.2°
Maximum altitude 05:38:28 11° 93° (E) 1,614 10.3 -22.9°
Drops below altitude 10° 05:39:34 10° 110° (ESE) 1,678 10.4 -22.7°
Sets 05:43:02 0° 147° (SSE) 2,536 10.8 -22.0°
